GW5181 Weather Reports


Display with metric or nautical units.
time (UTC)temp
F
wind
direction
speed
MPH
gust
MPH
rain 1hr
in
rain 24hr
in
rain mn
in
humidity
%
barometer
mb
20260509033000 55 322 0.0 0.0 0.05 0.13 0.13 94 1011.0
20260509031502 55 316 0.0 0.0 0.06 0.12 0.12 94 1010.8
20260509030003 55 316 0.0 0.0 0.07 0.11 0.11 94 1010.9
20260509024500 55 316 0.0 0.0 0.08 0.10 0.10 93 1011.0
20260509023002 55 316 1.0 3.0 0.07 0.08 0.08 93 1011.0
20260509021501 55 309 2.0 4.0 0.06 0.06 0.06 93 1011.1
20260509020002 55 309 1.0 5.0 0.04 0.04 0.04 93 1011.1
20260509014501 55 284 0.0 2.0 0.02 0.02 0.02 92 1011.2
20260509013000 55 5 0.0 1.0 0.01 0.01 0.01 91 1011.1
20260509011502 55 5 0.0 2.0 0.00 0.00 0.00 90 1010.8
20260509010002 55 48 0.0 2.0 0.00 0.00 0.00 89 1010.2
20260509004501 56 116 1.0 2.0 0.00 0.00 0.00 87 1010.0
20260509003001 56 11 0.0 1.0 0.00 0.00 0.00 86 1010.5
20260509001501 57 98 1.0 3.0 0.00 0.00 0.00 83 1010.0
20260509000004 58 342 1.0 4.0 0.00 0.00 0.00 80 1010.1
20260508234500 59 275 3.0 9.0 0.00 0.00 0.00 75 1010.4
20260508233001 60 322 2.0 8.0 0.00 0.00 0.00 72 1010.3
20260508231501 60 349 0.0 8.0 0.00 0.00 0.00 78 1010.0
20260508230000 61 209 0.0 0.0 0.00 0.00 0.00 79 1009.7
20260508223000 61 24 1.0 3.0 0.00 0.00 0.00 72 1009.6
20260508220000 64 293 0.0 1.0 0.00 0.00 0.00 65 1009.6
20260508212959 65 267 1.0 3.0 0.00 0.00 0.00 53 1009.6
20260508211501 65 290 3.0 8.0 0.00 0.00 0.00 50 1009.9
20260508210003 66 269 3.0 9.0 0.00 0.00 0.00 47 1009.7
20260508204501 66 273 5.0 11.0 0.00 0.00 0.00 46 1009.8
20260508203001 66 194 4.0 11.0 0.00 0.00 0.00 47 1010.1
20260508201501 66 292 6.0 13.0 0.00 0.00 0.00 47 1010.3
20260508200002 66 269 4.0 10.0 0.00 0.00 0.00 47 1010.6
20260508194501 66 315 5.0 11.0 0.00 0.00 0.00 46 1010.8
20260508193001 67 273 7.0 15.0 0.00 0.00 0.00 46 1011.0
20260508191500 67 288 6.0 14.0 0.00 0.00 0.00 46 1011.3
20260508184500 67 212 5.0 10.0 0.00 0.00 0.00 45 1011.5
20260508182959 67 287 8.0 19.0 0.00 0.00 0.00 46 1011.7
20260508181459 68 223 6.0 14.0 0.00 0.00 0.00 48 1011.7
20260508174501 67 303 5.0 12.0 0.00 0.00 0.00 50 1012.2
20260508173000 65 234 5.0 10.0 0.00 0.00 0.00 49 1012.8
20260508171459 64 269 9.0 18.0 0.00 0.00 0.00 52 1013.2
20260508165959 64 304 8.0 15.0 0.00 0.00 0.00 52 1013.2
20260508164459 64 186 7.0 16.0 0.00 0.00 0.00 50 1013.4
20260508163002 63 293 8.0 15.0 0.00 0.00 0.00 51 1013.7
20260508161500 64 194 6.0 15.0 0.00 0.00 0.00 52 1013.8
20260508160002 63 291 10.0 21.0 0.00 0.00 0.00 51 1013.9
20260508154501 64 227 9.0 19.0 0.00 0.00 0.00 51 1014.0
20260508153000 64 304 7.0 16.0 0.00 0.00 0.00 52 1013.9
20260508150000 62 252 9.0 18.0 0.00 0.00 0.00 51 1014.1
20260508144500 61 299 9.0 19.0 0.00 0.00 0.00 52 1014.3
20260508143000 61 276 8.0 15.0 0.00 0.00 0.00 52 1014.4
20260508140000 59 281 8.0 17.0 0.00 0.00 0.00 51 1014.4
20260508134500 58 300 9.0 21.0 0.00 0.00 0.00 52 1014.7
20260508131500 57 281 8.0 21.0 0.00 0.00 0.00 55 1014.6
20260508130000 56 320 5.0 13.0 0.00 0.00 0.00 56 1014.6
20260508124459 55 306 5.0 15.0 0.00 0.00 0.00 57 1014.7
20260508123000 54 304 2.0 10.0 0.00 0.00 0.00 61 1014.5
20260508121501 52 252 0.0 4.0 0.00 0.00 0.00 65 1014.5
20260508120001 51 317 0.0 0.0 0.00 0.00 0.00 72 1014.4
20260508113001 46 317 0.0 0.0 0.00 0.00 0.00 78 1014.5
20260508111500 45 317 0.0 0.0 0.00 0.00 0.00 79 1014.3
20260508110002 46 271 0.0 0.0 0.00 0.00 0.00 75 1014.4
20260508104459 48 271 0.0 1.0 0.00 0.00 0.00 72 1014.3
20260508102959 49 271 0.0 3.0 0.00 0.00 0.00 70 1014.2
20260508101500 50 246 0.0 1.0 0.00 0.00 0.00 69 1014.2
20260508094459 51 286 4.0 9.0 0.00 0.00 0.00 65 1014.2
20260508092959 49 286 2.0 6.0 0.00 0.00 0.00 70 1014.3
20260508091500 47 273 1.0 4.0 0.00 0.00 0.00 77 1014.3
20260508090003 45 310 0.0 0.0 0.00 0.00 0.00 83 1014.3
20260508084500 43 351 0.0 0.0 0.00 0.00 0.00 88 1014.2
20260508083000 42 351 0.0 0.0 0.00 0.00 0.00 92 1014.2
20260508081501 42 351 0.0 0.0 0.00 0.00 0.00 91 1014.2
20260508080001 42 351 0.0 0.0 0.00 0.00 0.00 91 1014.3
20260508074459 42 351 0.0 0.0 0.00 0.00 0.00 91 1014.3
20260508072959 42 351 0.0 0.0 0.00 0.00 0.00 91 1014.3
20260508071459 41 351 0.0 0.0 0.00 0.00 0.00 92 1014.2
20260508070001 41 351 0.0 0.0 0.00 0.00 0.00 91 1014.3
20260508064500 41 351 0.0 0.0 0.00 0.00 0.00 90 1014.5
20260508062959 41 351 0.0 0.0 0.00 0.00 0.00 91 1014.7
20260508061500 41 351 0.0 0.0 0.00 0.00 0.00 91 1014.7
20260508060001 41 351 0.0 0.0 0.00 0.00 0.00 91 1014.8
20260508054459 41 351 0.0 0.0 0.00 0.00 0.00 90 1015.0
20260508052959 42 351 0.0 0.0 0.00 0.00 0.00 89 1014.9
20260508051500 42 351 0.0 0.0 0.00 0.00 0.00 88 1015.0
20260508050002 42 351 0.0 0.0 0.00 0.00 0.00 87 1014.8
20260508044501 42 351 0.0 0.0 0.00 0.00 0.00 86 1014.9
20260508043000 43 351 0.0 0.0 0.00 0.00 0.00 86 1014.9
20260508041501 43 351 0.0 0.0 0.00 0.00 0.00 85 1014.8
20260508040001 44 351 0.0 0.0 0.00 0.00 0.00 84 1014.6
20260508034500 44 351 0.0 0.0 0.00 0.00 0.00 83 1014.8